Погода в Зуево

Россия / Новгородская область     59°11′01″N   31°32′03″E
темп.,
°C
ветер,
м/с
пор.,
м/с
влажн.,
%
обл.,
%
осадки,
мм/ч
давл.,
гПа
погр.,
м
5 декабря, вс
вс500:00−12св3794100 0.2 1012505
03:00−13св389397 0.4 1014495
06:00−14св489395 0.1 1015424
09:00−14св389396 0.3 1017430
12:00−14св379297 0.1 1019420
15:00−15св379298 0.1 1020363
18:00−16св389352 0.0 1021266
21:00−17св38935 0.0 1023235
6 декабря, пн
пн600:00−18св37945 0.0 1023180
03:00−20св27965 0.0 1024141
06:00−20св27975 0.0 1023137
09:00−20всв279616 0.0 1023139
12:00−16всв269460 0.0 1023191
15:00−14всв269588 0.1 1022257
18:00−14св379699 0.1 1021230
21:00−13всв2696100 0.3 1020220
7 декабря, вт
вт700:00−12св2596100 0.3 1018188
03:00−11св2496100 0.7 1017152
06:00−11ссв2397100 0.3 101589
09:00−11с249784 0.6 101495
12:00−9с249597 0.2 1014148
15:00−9ссз249689 0.3 1013176
18:00−11сз259876 0.1 101392
21:00−11сз259761 0.2 1013120
8 декабря, ср
ср800:00−13зсз269982 0.0 101394
03:00−12зсз279794 0.1 1014151
06:00−13зсз379781 0.1 1014146
09:00−16зсз279756 0.1 1016114
12:00−14зсз26965 0.0 1017127
15:00−14з229859 0.0 101841
18:00−18зсз129956 0.0 102018
21:00−20з1110036 0.0 102111
9 декабря, чт
чт900:00−21з1110043 0.0 102313
03:00−21зсз1110040 0.0 102312
06:00−21зсз1110046 0.0 10239
09:00−22сз1110047 0.0 10249
12:00−15ссв11955 0.0 102435
15:00−15с119753 0.0 10249
18:00−18с1110070 0.0 10259
21:00−18св11100100 0.0 102521